CW2312 Weather Reports


time (UTC)temp
F
wind
direction
speed
knots
gust
knots
rain 1hr
in
rain 24hr
in
rain mn
in
humidity
%
barometer
mb
20260508230538 64 0 0.0 0.0 0.00 0.00 0.00 68 1009.8
20260508225638 64 0 0.0 0.0 0.00 0.00 0.00 66 1009.8
20260508224738 65 0 0.0 0.0 0.00 0.00 0.00 65 1009.7
20260508223837 65 0 0.0 0.0 0.00 0.00 0.00 60 1009.6
20260508222937 65 0 0.0 0.0 0.00 0.00 0.00 55 1009.6
20260508222038 66 0 0.0 0.0 0.00 0.00 0.00 55 1009.7
20260508221138 66 0 0.0 0.0 0.00 0.00 0.00 53 1009.6
20260508220237 66 0 0.0 0.0 0.00 0.00 0.00 53 1009.7
20260508215337 66 0 0.0 0.0 0.00 0.00 0.00 52 1009.7
20260508213537 66 301 0.0 2.6 0.00 0.00 0.00 51 1009.6
20260508212638 66 237 0.0 3.5 0.00 0.00 0.00 51 1009.6
20260508211737 66 0 0.0 0.0 0.00 0.00 0.00 52 1009.7
20260508210838 66 0 0.0 0.0 0.00 0.00 0.00 51 1009.9
20260508205939 67 223 0.0 0.9 0.00 0.00 0.00 52 1010.1
20260508205037 67 0 0.0 0.0 0.00 0.00 0.00 51 1010.1
20260508204138 67 299 0.0 0.9 0.00 0.00 0.00 50 1010.3
20260508203237 67 253 0.0 3.5 0.00 0.00 0.00 50 1010.2
20260508202337 67 269 0.9 6.1 0.00 0.00 0.00 49 1010.5
20260508201437 67 277 0.9 6.1 0.00 0.00 0.00 48 1010.6
20260508195638 67 260 1.7 9.6 0.00 0.00 0.00 47 1010.6
20260508194737 67 258 2.6 8.7 0.00 0.00 0.00 46 1010.7
20260508193839 68 255 2.6 10.4 0.00 0.00 0.00 45 1010.7
20260508192937 68 237 3.5 14.8 0.00 0.00 0.00 45 1010.8
20260508191137 69 241 3.5 10.4 0.00 0.00 0.00 46 1011.0
20260508190237 69 253 4.3 11.3 0.00 0.00 0.00 46 1011.2
20260508184438 68 231 4.3 11.3 0.00 0.00 0.00 46 1011.5
20260508183538 68 231 5.2 13.0 0.00 0.00 0.00 47 1011.6
20260508182637 69 258 4.3 13.9 0.00 0.00 0.00 48 1011.8
20260508181737 68 238 3.5 10.4 0.00 0.00 0.00 49 1011.8
20260508180838 68 255 2.6 10.4 0.00 0.00 0.00 50 1012.0
20260508175038 67 252 4.3 11.3 0.00 0.00 0.00 49 1012.3
20260508174137 67 266 2.6 9.6 0.00 0.00 0.00 49 1012.3
20260508172338 67 236 4.3 13.0 0.00 0.00 0.00 48 1012.6
20260508171438 68 253 3.5 13.0 0.00 0.00 0.00 48 1012.7
20260508170537 68 244 4.3 12.2 0.00 0.00 0.00 48 1012.8
20260508165637 69 259 3.5 10.4 0.00 0.00 0.00 49 1012.9
20260508164737 68 275 5.2 11.3 0.00 0.00 0.00 48 1013.1
20260508163837 68 262 5.2 11.3 0.00 0.00 0.00 47 1013.2
20260508162938 68 259 2.6 10.4 0.00 0.00 0.00 49 1013.3
20260508162038 67 256 5.2 13.9 0.00 0.00 0.00 48 1013.4
20260508161138 67 231 6.1 14.8 0.00 0.00 0.00 49 1013.3
20260508160237 67 241 4.3 12.2 0.00 0.00 0.00 49 1013.5
20260508155337 67 249 3.5 10.4 0.00 0.00 0.00 52 1013.5
20260508153538 66 256 1.7 7.0 0.00 0.00 0.00 53 1013.8
20260508152637 64 207 3.5 10.4 0.00 0.00 0.00 53 1013.8
20260508151737 63 211 1.7 7.0 0.00 0.00 0.00 55 1013.8
20260508150837 63 191 1.7 7.0 0.00 0.00 0.00 56 1014.1
20260508145937 62 237 1.7 9.6 0.00 0.00 0.00 56 1014.0
20260508145036 62 230 2.6 11.3 0.00 0.00 0.00 55 1013.8
20260508144137 62 229 1.7 9.6 0.00 0.00 0.00 56 1014.1
20260508143238 61 240 2.6 9.6 0.00 0.00 0.00 55 1014.1
20260508141437 60 242 2.6 8.7 0.00 0.00 0.00 56 1014.5
20260508140536 60 245 2.6 11.3 0.00 0.00 0.00 55 1014.5
20260508133837 59 233 3.5 12.2 0.00 0.00 0.00 56 1014.6
20260508132936 59 231 1.7 9.6 0.00 0.00 0.00 56 1014.5
20260508132036 58 231 1.7 8.7 0.00 0.00 0.00 58 1014.5
20260508131136 57 224 1.7 8.7 0.00 0.00 0.00 59 1014.6
20260508130237 56 242 2.6 10.4 0.00 0.00 0.00 59 1014.6
20260508125337 55 230 3.5 8.7 0.00 0.00 0.00 60 1014.4
20260508124436 55 222 1.7 6.1 0.00 0.00 0.00 61 1014.4
20260508123538 54 232 2.6 7.0 0.00 0.00 0.00 61 1014.4
20260508122636 54 215 2.6 7.8 0.00 0.00 0.00 63 1014.4
20260508121736 53 206 1.7 5.2 0.00 0.00 0.00 66 1014.4
20260508120836 51 204 0.0 4.3 0.00 0.00 0.00 68 1014.6
20260508114136 49 210 0.9 4.3 0.00 0.00 0.00 70 1014.3
20260508113237 48 209 0.0 2.6 0.00 0.00 0.00 70 1014.1
20260508112338 48 236 0.0 2.6 0.00 0.00 0.00 71 1014.1
20260508111436 48 234 0.0 3.5 0.00 0.00 0.00 72 1014.1
20260508110536 47 236 0.0 2.6 0.00 0.00 0.00 72 1014.0
20260508105636 47 257 0.0 0.9 0.00 0.00 0.00 73 1013.9
20260508104736 46 257 0.0 3.5 0.00 0.00 0.00 74 1013.8
20260508103836 46 0 0.0 0.0 0.00 0.00 0.00 75 1013.8
20260508102937 46 0 0.0 0.0 0.00 0.00 0.00 76 1013.7
20260508102036 45 0 0.0 0.0 0.00 0.00 0.00 76 1013.7
20260508101136 45 0 0.0 0.0 0.00 0.00 0.00 76 1013.7
20260508100236 44 0 0.0 0.0 0.00 0.00 0.00 76 1013.8
20260508095337 44 0 0.0 0.0 0.00 0.00 0.00 76 1013.8
20260508094437 44 0 0.0 0.0 0.00 0.00 0.00 76 1013.9
20260508093536 44 0 0.0 0.0 0.00 0.00 0.00 75 1013.9
20260508092636 44 0 0.0 0.0 0.00 0.00 0.00 74 1014.1
20260508091736 44 0 0.0 0.0 0.00 0.00 0.00 74 1014.0
20260508090837 44 0 0.0 0.0 0.00 0.00 0.00 73 1013.9
20260508085936 44 0 0.0 0.0 0.00 0.00 0.00 72 1014.0
20260508085037 44 0 0.0 0.0 0.00 0.00 0.00 71 1014.0
20260508084136 45 0 0.0 0.0 0.00 0.00 0.00 70 1014.0
20260508083237 45 0 0.0 0.0 0.00 0.00 0.00 69 1014.0
20260508082336 46 0 0.0 0.0 0.00 0.00 0.00 68 1014.1
20260508080536 46 0 0.0 0.0 0.00 0.00 0.00 67 1014.0
20260508075636 47 0 0.0 0.0 0.00 0.00 0.00 67 1013.9
20260508074737 47 0 0.0 0.0 0.00 0.00 0.00 67 1013.9
20260508073836 48 0 0.0 0.0 0.00 0.00 0.00 67 1013.8
20260508072936 48 0 0.0 0.0 0.00 0.00 0.00 66 1013.9
20260508072037 48 0 0.0 0.0 0.00 0.00 0.00 66 1014.0
20260508071136 48 0 0.0 0.0 0.00 0.00 0.00 66 1014.2
20260508070236 48 0 0.0 0.0 0.00 0.00 0.00 66 1014.0
20260508064436 48 0 0.0 0.0 0.00 0.00 0.00 65 1014.3
20260508062636 48 244 0.0 3.5 0.00 0.00 0.00 65 1014.5
20260508061737 48 235 0.0 3.5 0.00 0.00 0.00 65 1014.4
20260508060836 48 230 0.9 4.3 0.00 0.00 0.00 65 1014.4
20260508055036 48 235 0.0 4.3 0.00 0.00 0.00 66 1014.4
20260508054137 48 240 0.0 2.6 0.00 0.00 0.00 66 1014.5
20260508053237 48 262 0.0 3.5 0.00 0.00 0.00 66 1014.5
20260508052335 48 249 0.0 3.5 0.00 0.00 0.00 66 1014.4
20260508051436 48 241 0.0 0.9 0.00 0.00 0.00 66 1014.5
20260508050535 48 0 0.0 0.0 0.00 0.00 0.00 65 1014.6
20260508045635 49 0 0.0 0.0 0.00 0.00 0.00 64 1014.5
20260508044736 49 0 0.0 0.0 0.00 0.00 0.00 63 1014.4
20260508043837 49 0 0.0 0.0 0.00 0.00 0.00 61 1014.4
20260508042935 50 0 0.0 0.0 0.00 0.00 0.00 60 1014.4
20260508042035 50 0 0.0 0.0 0.00 0.00 0.00 60 1014.3
20260508041136 50 0 0.0 0.0 0.00 0.00 0.00 60 1014.4
20260508040235 51 0 0.0 0.0 0.00 0.00 0.00 59 1014.3
20260508035336 51 0 0.0 0.0 0.00 0.00 0.00 59 1014.4
20260508034435 51 0 0.0 0.0 0.00 0.00 0.00 59 1014.3
20260508032635 50 198 0.0 2.6 0.00 0.00 0.00 60 1014.3
20260508031735 50 0 0.0 0.0 0.00 0.00 0.00 60 1014.4
20260508030835 50 0 0.0 0.0 0.00 0.00 0.00 61 1014.3
20260508025936 50 0 0.0 0.0 0.00 0.00 0.00 61 1014.2
20260508025036 50 0 0.0 0.0 0.00 0.00 0.00 61 1014.2
20260508023235 51 0 0.0 0.0 0.00 0.00 0.00 60 1014.1
20260508022336 51 0 0.0 0.0 0.00 0.00 0.00 59 1014.1
20260508021436 52 0 0.0 0.0 0.00 0.00 0.00 59 1014.0
20260508020535 52 0 0.0 0.0 0.00 0.00 0.00 59 1013.9
20260508013835 53 0 0.0 0.0 0.00 0.00 0.00 56 1014.1
20260508012935 54 0 0.0 0.0 0.00 0.00 0.00 56 1014.1
20260508012035 54 0 0.0 0.0 0.00 0.00 0.00 53 1014.0
20260508011136 55 0 0.0 0.0 0.00 0.00 0.00 51 1014.0
20260508010236 55 0 0.0 0.0 0.00 0.00 0.00 49 1014.1
20260508005335 56 0 0.0 0.0 0.00 0.00 0.00 47 1014.0
20260508004435 57 0 0.0 0.0 0.00 0.00 0.00 46 1014.1
20260508002635 57 0 0.0 0.0 0.00 0.00 0.00 45 1013.9
20260508001735 58 0 0.0 0.0 0.00 0.00 0.00 44 1013.8
20260508000836 58 275 0.0 6.1 0.00 0.00 0.00 43 1013.9
20260507235035 59 246 0.0 5.2 0.00 0.00 0.00 44 1013.7
20260507234135 59 231 0.9 4.3 0.00 0.00 0.00 41 1013.6
20260507233236 60 223 0.0 4.3 0.00 0.00 0.00 42 1013.6
20260507232336 60 289 0.0 5.2 0.00 0.00 0.00 42 1013.8